• In Hungary
  • List of Countries
  • For 7 days
  • Water Temperature
  • Satellite Maps
  • Weather Map
  • News
  • Weather Widgets
  • user-avatar
    Login

    Hourly Weather Stanton

    Today, 22 June, Friday

    Time Temperature Precipitation Wind Pressure Humidity
    00:00 +25°C° 0 mm 1 mps 757 mmHg 63%
    01:00 +25°C° 0 mm 1 mps 757 mmHg 65%
    02:00 +24°C° 0 mm 1 mps 756 mmHg 65%
    03:00 +24°C° 0 mm 1 mps 756 mmHg 64%
    04:00 +22°C° 0 mm 0 mps 756 mmHg 64%
    05:00 +25°C° 0 mm 1 mps 756 mmHg 59%
    06:00 +26°C° 0 mm 1 mps 757 mmHg 54%
    07:00 +27°C° 0 mm 1 mps 757 mmHg 49%
    08:00 +29°C° 0 mm 2 mps 756 mmHg 44%
    09:00 +31°C° 0 mm 2 mps 756 mmHg 39%
    10:00 +32°C° 0 mm 2 mps 756 mmHg 34%
    11:00 +34°C° 0 mm 3 mps 756 mmHg 33%
    12:00 +35°C° 0 mm 3 mps 755 mmHg 31%
    13:00 +36°C° 0 mm 4 mps 755 mmHg 29%
    14:00 +36°C° 0 mm 4 mps 755 mmHg 29%
    15:00 +36°C° 0 mm 4 mps 754 mmHg 29%
    16:00 +36°C° 0 mm 4 mps 754 mmHg 30%
    17:00 +34°C° 0 mm 3 mps 754 mmHg 33%
    18:00 +33°C° 0 mm 3 mps 754 mmHg 36%
    19:00 +30°C° 0 mm 2 mps 754 mmHg 39%
    20:00 +30°C° 0 mm 2 mps 754 mmHg 42%
    21:00 +29°C° 0 mm 2 mps 754 mmHg 44%
    22:00 +28°C° 0 mm 1 mps 754 mmHg 47%
    23:00 +27°C° 0 mm 1 mps 754 mmHg 48%

    Tomorrow, 23 June, Saturday

    Time Temperature Precipitation Wind Pressure Humidity
    00:00 +27°C° 0 mm 1 mps 754 mmHg 50%
    01:00 +26°C° 0 mm 1 mps 754 mmHg 51%
    02:00 +26°C° 0 mm 1 mps 753 mmHg 52%
    03:00 +25°C° 0 mm 1 mps 753 mmHg 52%
    04:00 +25°C° 0 mm 1 mps 753 mmHg 53%
    05:00 +26°C° 0 mm 1 mps 753 mmHg 50%
    06:00 +27°C° 0 mm 1 mps 753 mmHg 46%
    07:00 +27°C° 0 mm 2 mps 753 mmHg 43%
    08:00 +29°C° 0 mm 2 mps 753 mmHg 39%
    09:00 +30°C° 0 mm 3 mps 753 mmHg 36%
    10:00 +33°C° 0 mm 3 mps 753 mmHg 32%
    11:00 +34°C° 0 mm 3 mps 753 mmHg 31%
    12:00 +34°C° 0 mm 4 mps 753 mmHg 30%
    13:00 +35°C° 0 mm 4 mps 753 mmHg 28%
    14:00 +34°C° 0 mm 4 mps 753 mmHg 29%
    15:00 +34°C° 0 mm 4 mps 752 mmHg 29%
    16:00 +33°C° 0 mm 4 mps 752 mmHg 30%
    17:00 +31°C° 0 mm 3 mps 752 mmHg 33%
    18:00 +30°C° 0 mm 3 mps 753 mmHg 37%
    19:00 +28°C° 0 mm 3 mps 753 mmHg 40%
    20:00 +27°C° 0 mm 3 mps 754 mmHg 44%
    21:00 +27°C° 0 mm 3 mps 754 mmHg 48%
    22:00 +26°C° 0 mm 3 mps 754 mmHg 51%
    23:00 +25°C° 0 mm 3 mps 754 mmHg 54%

    Day after tomorrow, 24 June, Sunday

    Time Temperature Precipitation Wind Pressure Humidity
    00:00 +25°C° 0 mm 2 mps 754 mmHg 56%
    01:00 +24°C° 0 mm 2 mps 754 mmHg 58%
    02:00 +24°C° 0 mm 2 mps 754 mmHg 60%
    03:00 +24°C° 0 mm 2 mps 755 mmHg 61%
    04:00 +23°C° 0 mm 2 mps 755 mmHg 62%
    05:00 +24°C° 0 mm 2 mps 755 mmHg 59%
    06:00 +25°C° 0 mm 2 mps 755 mmHg 56%
    07:00 +25°C° 0 mm 2 mps 756 mmHg 53%
    08:00 +27°C° 0 mm 3 mps 756 mmHg 50%
    09:00 +28°C° 0 mm 3 mps 756 mmHg 46%
    10:00 +29°C° 0 mm 4 mps 757 mmHg 42%
    11:00 +30°C° 0 mm 4 mps 756 mmHg 41%
    12:00 +30°C° 0 mm 4 mps 756 mmHg 40%
    13:00 +32°C° 0 mm 4 mps 756 mmHg 39%
    14:00 +32°C° 0 mm 4 mps 756 mmHg 39%
    15:00 +30°C° 0 mm 4 mps 756 mmHg 39%
    16:00 +30°C° 0 mm 3 mps 756 mmHg 39%
    17:00 +29°C° 0 mm 3 mps 756 mmHg 41%
    18:00 +28°C° 0 mm 2 mps 756 mmHg 44%
    19:00 +27°C° 0 mm 2 mps 756 mmHg 47%
    20:00 +26°C° 0 mm 2 mps 757 mmHg 50%
    21:00 +26°C° 0 mm 2 mps 757 mmHg 53%
    22:00 +25°C° 0 mm 1 mps 758 mmHg 57%
    23:00 +24°C° 0 mm 1 mps 757 mmHg 58%

    25 June, Monday

    Time Temperature Precipitation Wind Pressure Humidity
    00:00 +24°C° 0 mm 1 mps 757 mmHg 60%
    01:00 +24°C° 0 mm 1 mps 757 mmHg 62%
    02:00 +23°C° 0 mm 1 mps 757 mmHg 62%
    03:00 +23°C° 0 mm 1 mps 757 mmHg 63%
    04:00 +23°C° 0 mm 1 mps 757 mmHg 63%
    05:00 +24°C° 0 mm 1 mps 758 mmHg 59%
    06:00 +25°C° 0 mm 1 mps 758 mmHg 55%
    07:00 +25°C° 0 mm 1 mps 758 mmHg 51%
    08:00 +27°C° 0 mm 1 mps 758 mmHg 46%
    09:00 +28°C° 0 mm 2 mps 758 mmHg 41%
    10:00 +30°C° 0 mm 2 mps 758 mmHg 36%
    11:00 +31°C° 0 mm 3 mps 758 mmHg 34%
    12:00 +33°C° 0 mm 3 mps 758 mmHg 32%
    13:00 +34°C° 0 mm 4 mps 757 mmHg 30%
    14:00 +34°C° 0 mm 4 mps 757 mmHg 30%
    15:00 +34°C° 0 mm 4 mps 757 mmHg 30%
    16:00 +34°C° 0 mm 4 mps 757 mmHg 30%
    17:00 +31°C° 0 mm 3 mps 757 mmHg 33%
    18:00 +30°C° 0 mm 3 mps 757 mmHg 35%
    19:00 +29°C° 0 mm 3 mps 757 mmHg 38%
    20:00 +28°C° 0 mm 2 mps 758 mmHg 41%
    21:00 +27°C° 0 mm 2 mps 758 mmHg 44%
    22:00 +26°C° 0 mm 2 mps 758 mmHg 47%
    23:00 +26°C° 0 mm 2 mps 758 mmHg 48%

    26 June, Tuesday

    Time Temperature Precipitation Wind Pressure Humidity
    00:00 +25°C° 0 mm 1 mps 758 mmHg 50%
    01:00 +25°C° 0 mm 1 mps 758 mmHg 52%
    02:00 +25°C° 0 mm 1 mps 758 mmHg 52%
    03:00 +24°C° 0 mm 1 mps 758 mmHg 53%
    04:00 +24°C° 0 mm 1 mps 758 mmHg 53%
    05:00 +25°C° 0 mm 1 mps 758 mmHg 49%
    06:00 +26°C° 0 mm 1 mps 758 mmHg 45%
    07:00 +27°C° 0 mm 1 mps 758 mmHg 41%
    08:00 +29°C° 0 mm 2 mps 758 mmHg 37%
    09:00 +30°C° 0 mm 2 mps 758 mmHg 33%
    10:00 +33°C° 0 mm 3 mps 758 mmHg 30%
    11:00 +33°C° 0 mm 3 mps 758 mmHg 29%
    12:00 +34°C° 0 mm 3 mps 758 mmHg 28%
    13:00 +35°C° 0 mm 4 mps 757 mmHg 28%
    14:00 +35°C° 0 mm 4 mps 757 mmHg 29%
    15:00 +34°C° 0 mm 4 mps 757 mmHg 30%
    16:00 +34°C° 0 mm 4 mps 757 mmHg 31%
    17:00 +33°C° 0 mm 3 mps 757 mmHg 34%
    18:00 +31°C° 0 mm 3 mps 757 mmHg 37%
    19:00 +30°C° 0 mm 2 mps 757 mmHg 40%
    20:00 +29°C° 0 mm 2 mps 757 mmHg 42%
    21:00 +28°C° 0 mm 2 mps 758 mmHg 44%
    22:00 +27°C° 0 mm 1 mps 758 mmHg 47%
    23:00 +27°C° 0 mm 1 mps 758 mmHg 48%

    27 June, Wednesday

    Time Temperature Precipitation Wind Pressure Humidity
    00:00 +27°C° 0 mm 1 mps 757 mmHg 49%
    01:00 +26°C° 0 mm 1 mps 757 mmHg 50%
    02:00 +26°C° 0 mm 1 mps 757 mmHg 50%
    03:00 +26°C° 0 mm 1 mps 757 mmHg 51%
    04:00 +24°C° 0 mm 0 mps 757 mmHg 51%
    05:00 +26°C° 0 mm 1 mps 757 mmHg 48%
    06:00 +27°C° 0 mm 1 mps 757 mmHg 46%
    07:00 +28°C° 0 mm 1 mps 757 mmHg 43%
    08:00 +30°C° 0 mm 1 mps 757 mmHg 39%
    09:00 +31°C° 0 mm 2 mps 757 mmHg 35%
    10:00 +32°C° 0 mm 2 mps 757 mmHg 31%
    11:00 +34°C° 0 mm 3 mps 757 mmHg 29%
    12:00 +35°C° 0 mm 3 mps 757 mmHg 27%
    13:00 +36°C° 0 mm 4 mps 756 mmHg 25%
    14:00 +36°C° 0 mm 4 mps 756 mmHg 25%
    15:00 +35°C° 0 mm 4 mps 756 mmHg 25%
    16:00 +35°C° 0 mm 4 mps 756 mmHg 25%
    17:00 +34°C° 0 mm 4 mps 756 mmHg 28%
    18:00 +31°C° 0 mm 3 mps 756 mmHg 30%
    19:00 +30°C° 0 mm 3 mps 757 mmHg 33%
    20:00 +29°C° 0 mm 2 mps 757 mmHg 36%
    21:00 +28°C° 0 mm 2 mps 757 mmHg 39%
    22:00 +27°C° 0 mm 2 mps 757 mmHg 41%
    23:00 +26°C° 0 mm 2 mps 757 mmHg 42%
    Show more